CZ-4B DEB, 43431

Orbit data source: Space-Track

CZ-4B DEB, 43431 is space debris in LEO originally from a launch on Thu, 15 Jun 2017 UTC launched from the Jiuquan Satellite Launch Center, China (JSC). Debris objects in space refer to the collection of defunct objects orbiting the Earth. Examples of debris include non-operational satellites, rocket bodies, and fragments generated from explosions, collisions, or faulty payload assembly.

Loading next visibility...
Identifier
43431, 2017-034G
Orbit
LEO
Country
Flag of CNCN / PRC
Related business
Manufacturer
SAST
Mission
Spacecraft
Bus & Motor
Unknown
Mass
Unknown
Launch date (UTC)
2017-06-15 (9 years ago)
Launch vehicle
Unknown
Launch site
Jiuquan Satellite Launch Center, China (JSC)
Object type
Payload
Rocket body
Debris
Shape & HBR
Unknown shape, 0.1 m
Radar Cross Section
Small (<0.1 m²)

Expand to show TLE details & history
Last TLE update: 20 hours ago

TLE from 20 hours ago
0 CZ-4B DEB
1 43431U 17034G   26120.45113226  .00013264  00000-0  88997-3 0  9995
2 43431  43.0797 265.7781 0115573 299.1554  59.7764 15.01388473472988
Epoch: 2026-04-30T10:49Z
TLE epoch observation values (Epoch: 2026-04-30T10:49:37.827Z)
Latitude
-0.00002°
Longitude
-115.02709°
Altitude
522.726 km
Speed
7.625 km/s
True Right ascension
17h 43m 06s
True Declination
0° 00' 00"
Sunlit
Object was in full shadow at epoch
Visualization orbit readout
Latitude
Unknown
Longitude
Unknown
Altitude
Unknown
Speed
Unknown
Apparent Right ascension
Unknown
Apparent Declination
Unknown
Sunlit
N/A
Visualization observer readout
Local Sidereal Time
14:10:15
Azimuth
Unknown
Elevation
Unknown
Doppler factor
Unknown
Orbital elements
Apogee altitude
644.762 km
Perigee altitude
484.286 km
Semi-major axis
6,942.661 km
Eccentricity
0.01156
Inclination
43.0797°
RAAN
265.7781°
Arg. of periapsis
299.1554°
True anomaly
60.92905°
Mean anomaly
59.7764°
Eccentric anomaly
60.35189°
Mean motion
3.75193 °/min
Orbital period
95.95 mins
BSTAR
0.00088997
Loading maneuver chart data...
Computing Atmospheric mass density...
Loading historical data...
Loading historical data...
Loading historical data...
Loading historical data...
Loading historical data...
Loading historical data...
Loading historical data...

Documentation

Showing up to 5 results
|